Weather History for Rotterdam Airport Zestienhoven, Netherlands

Change the Weather History Date:

Thursday, October 17, 2013

  Actual Average Record
Temperature  
Mean Temperature 54 °F -  
Max Temperature 61 °F 51 °F - ()
Min Temperature 46 °F 42 °F - ()
Degree Days  
Heating Degree Days 12    
Growing Degree Days 4 (Base 50)    
Moisture  
Dew Point 51 °F    
Average Humidity 84    
Maximum Humidity 100    
Minimum Humidity 61    
Precipitation  
Precipitation 0.00 in - - ()
Sea Level Pressure  
Sea Level Pressure 29.87 in    
Wind  
Wind Speed 13 mph ()    
Max Wind Speed 21 mph    
Max Gust Speed 32 mph    
Visibility 6.1 miles    
Events Fog    
T = Trace of Precipitation, MM = Missing Value Source: Averaged Metar Reports

Daily Weather History Graph

Daily Weather History Graph

Search for Another Location

Airport:

Trip Planner

Search our weather history database for the weather conditions in past years. The results will help you decide how hot, cold, wet, or windy it might be!

Date:

Astronomy

Oct. 17, 2013 Rise Set
Actual Time 8:10 AM CEST 6:43 PM CEST
Civil Twilight 7:36 AM CEST 7:17 PM CEST
Nautical Twilight 6:57 AM CEST 7:56 PM CEST
Astronomical Twilight 6:18 AM CEST 8:35 PM CEST
Moon 5:54 PM CEST (10/17) 6:16 AM CEST (10/17)
Length of Visible Light 11h 41m
Length of Day
10h 33m
Waxing Gibbous, 97% of the Moon is Illuminated
Oct 17
Waxing Gibbous
Oct 19
Full
Oct 27
Last Quarter
Nov 3
New
Nov 10
First Quarter

Hourly Weather History & Observations

Time (CEST) Temp. Dew Point Humidity Pressure Visibility Wind Dir Wind Speed Gust Speed Precip Events Conditions
12:25 AM 53.6 °F 53.6 °F 100% 29.77 in 4.3 mi SW 15.0 mph - N/A   Partly Cloudy
12:55 AM 55.4 °F 53.6 °F 94% 29.77 in 5.6 mi SW 13.8 mph - N/A   Unknown
1:25 AM 55.4 °F 51.8 °F 88% 29.80 in 6.2 mi WSW 12.7 mph - N/A   Unknown
1:55 AM 57.2 °F 51.8 °F 82% 29.80 in 6.2 mi WSW 16.1 mph - N/A   Unknown
2:00 AM 56 °F 52 °F 81% 29.81 in 9 mi WSW 15.7 mph - -   Partly Cloudy
2:25 AM 57.2 °F 51.8 °F 82% 29.80 in 6.2 mi WSW 17.3 mph - N/A   Unknown
2:55 AM 55.4 °F 51.8 °F 88% 29.80 in 6.2 mi WSW 16.1 mph - N/A   Unknown
3:25 AM 55.4 °F 51.8 °F 88% 29.80 in 6.2 mi SW 12.7 mph - N/A   Unknown
3:55 AM 55.4 °F 53.6 °F 94% 29.77 in 5.6 mi SW 13.8 mph - N/A   Unknown
4:25 AM 55.4 °F 53.6 °F 94% 29.77 in 5.0 mi SW 13.8 mph - N/A   Mostly Cloudy
4:55 AM 55.4 °F 53.6 °F 94% 29.77 in 5.0 mi SW 13.8 mph - N/A   Mostly Cloudy
5:00 AM 56 °F 54 °F 91% 29.79 in 5 mi SW 15.7 mph - -   Mist
5:25 AM 57.2 °F 53.6 °F 88% 29.77 in 5.0 mi SW 16.1 mph - N/A   Mostly Cloudy
5:55 AM 57.2 °F 53.6 °F 88% 29.77 in 5.6 mi SW 17.3 mph - N/A   Overcast
6:25 AM 57.2 °F 53.6 °F 88% 29.77 in 5.6 mi WSW 17.3 mph - N/A   Mostly Cloudy
6:55 AM 57.2 °F 53.6 °F 88% 29.77 in 6.2 mi WSW 18.4 mph - N/A   Mostly Cloudy
7:25 AM 57.2 °F 53.6 °F 88% 29.80 in 6.2 mi WSW 17.3 mph 32.2 mph N/A   Mostly Cloudy
7:55 AM 57.2 °F 51.8 °F 82% 29.80 in 6.2 mi WSW 17.3 mph - N/A   Mostly Cloudy
8:00 AM 57 °F 53 °F 80% 29.81 in 6 mi WSW 17.9 mph - -   Partly Cloudy
8:25 AM 57.2 °F 51.8 °F 82% 29.80 in 6.2 mi WSW 17.3 mph - N/A   Mostly Cloudy
8:55 AM 57.2 °F 51.8 °F 82% 29.80 in 6.2 mi WSW 15.0 mph - N/A   Mostly Cloudy
9:25 AM 57.2 °F 53.6 °F 88% 29.83 in 6.2 mi WSW 17.3 mph - N/A   Mostly Cloudy
9:55 AM 57.2 °F 51.8 °F 82% 29.83 in 6.2 mi WSW 16.1 mph - N/A   Mostly Cloudy
10:25 AM 59.0 °F 51.8 °F 77% 29.83 in 6.2 mi WSW 17.3 mph 32.2 mph N/A   Mostly Cloudy
10:55 AM 59.0 °F 51.8 °F 77% 29.83 in 6.2 mi West 18.4 mph 32.2 mph N/A   Mostly Cloudy
11:00 AM 60 °F 53 °F 69% 29.86 in 8 mi West 17.9 mph - -   Overcast
11:25 AM 59.0 °F 51.8 °F 77% 29.86 in 6.2 mi West 16.1 mph - N/A   Mostly Cloudy
11:55 AM 59.0 °F 51.8 °F 77% 29.86 in 6.2 mi West 20.7 mph - N/A   Mostly Cloudy
12:25 PM 59.0 °F 51.8 °F 77% 29.86 in 6.2 mi West 18.4 mph 31.1 mph N/A   Mostly Cloudy
12:55 PM 60.8 °F 51.8 °F 72% 29.86 in 6.2 mi West 20.7 mph - N/A   Mostly Cloudy
1:25 PM 60.8 °F 50.0 °F 68% 29.86 in 6.2 mi West 19.6 mph - N/A   Scattered Clouds
1:55 PM 59.0 °F 50.0 °F 72% 29.89 in 6.2 mi West 18.4 mph - N/A   Mostly Cloudy
2:00 PM 61 °F 51 °F 61% 29.89 in 9 mi West 20.1 mph - -   Partly Cloudy
2:25 PM 60.8 °F 51.8 °F 72% 29.89 in 6.2 mi West 17.3 mph - N/A   Mostly Cloudy
2:55 PM 59.0 °F 50.0 °F 72% 29.89 in 6.2 mi West 16.1 mph - N/A   Mostly Cloudy
3:25 PM 60.8 °F 51.8 °F 72% 29.89 in 6.2 mi West 16.1 mph - N/A   Partly Cloudy
3:55 PM 59.0 °F 50.0 °F 72% 29.92 in 6.2 mi West 13.8 mph - N/A   Mostly Cloudy
4:25 PM 59.0 °F 51.8 °F 77% 29.92 in 6.2 mi West 12.7 mph - N/A   Partly Cloudy
4:55 PM 57.2 °F 50.0 °F 77% 29.92 in 6.2 mi West 10.4 mph - N/A   Unknown
5:00 PM 58 °F 50 °F 68% 29.94 in 13 mi West 11.2 mph - -  
5:25 PM 59.0 °F 50.0 °F 72% 29.92 in 6.2 mi West 10.4 mph - N/A   Partly Cloudy
5:55 PM 59.0 °F 50.0 °F 72% 29.92 in 6.2 mi West 8.1 mph - N/A   Mostly Cloudy
6:25 PM 55.4 °F 50.0 °F 82% 29.95 in 6.2 mi West 8.1 mph - N/A   Unknown
6:55 PM 55.4 °F 50.0 °F 82% 29.95 in 6.2 mi West 5.8 mph - N/A   Unknown
7:25 PM 53.6 °F 50.0 °F 88% 29.95 in 6.2 mi West 5.8 mph - N/A   Unknown
7:55 PM 51.8 °F 48.2 °F 88% 29.95 in 6.2 mi West 4.6 mph - N/A   Unknown
8:00 PM 50 °F 48 °F 91% 29.97 in 9 mi West 4.5 mph - -   Partly Cloudy
8:25 PM 48.2 °F 46.4 °F 93% 29.95 in 6.2 mi West 3.5 mph - N/A   Partly Cloudy
8:55 PM 48.2 °F 46.4 °F 93% 29.95 in 6.2 mi SW 3.5 mph - N/A   Unknown
9:25 PM 48.2 °F 48.2 °F 100% 29.98 in 6.2 mi South 2.3 mph - N/A   Partly Cloudy
9:55 PM 48.2 °F 48.2 °F 100% 29.98 in 6.2 mi SSW 3.5 mph - N/A   Unknown
10:25 PM 48.2 °F 48.2 °F 100% 29.98 in - Calm Calm - N/A   Mist
10:55 PM 46.4 °F 46.4 °F 100% 29.98 in 2.5 mi Variable 2.3 mph - N/A   Partly Cloudy
11:00 PM 47 °F 47 °F 100% 30.01 in 0 mi Calm Calm - - Fog Fog
11:25 PM 48.2 °F 48.2 °F 100% 30.01 in 3.7 mi South 2.3 mph - N/A   Unknown
11:55 PM 46.4 °F 46.4 °F 100% 30.01 in - Variable 2.3 mph - N/A   Scattered Clouds